Regional Weather Roundup
Issued by NWS

Home | Current Version | Previous Version | Text Only | Print | Product List | Glossary On
Versions: 1 2 3 4 5 6 7 8 9 10 11 12 13 14 15 16 17 18 19 20 21 22 23 24 25 26 27 28 29 30 31 32 33 34 35 36 37 38 39 40 41 42 43 44 45 46 47 48 49 50
307
ASUS44 KLUB 261610
RWRTX
WEST TEXAS WEATHER ROUNDUP
NATIONAL WEATHER SERVICE LUBBOCK TX
1100 AM CDT FRI AUG 26 2016

NOTE: "FAIR" INDICATES FEW OR NO CLOUDS BELOW 12,000 FEET WITH NO
SIGNIFICANT WEATHER AND/OR OBSTRUCTIONS TO VISIBILITY.

TXZ004-006>008-010-012-014-016-OKZ002-261700-
TEXAS PANHANDLE/OKLAHOMA PANHANDLE

CITY           SKY/WX    TMP DP  RH WIND       PRES   REMARKS
AMARILLO       PTSUNNY   69  62  78 SW12      30.20R
BORGER         CLOUDY    71  62  73 VRB6      30.17R
CANADIAN       DRIZZLE   70  67  89 SW6       30.14R
DALHART        SUNNY     74  53  48 S8        30.17F
DUMAS          CLOUDY    66  63  90 SW8       30.19S
GUYMON         CLOUDY    68  63  84 SE5       30.15S
HEREFORD       CLOUDY    70  64  80 W8        30.22S
PAMPA          CLOUDY    70  63  76 SW10      30.18S
$$

TXZ026-029-035-045-048-261700-
SOUTHERN PANHANDLE/SOUTH PLAINS/ROLLING PLAINS

CITY           SKY/WX    TMP DP  RH WIND       PRES   REMARKS
CHILDRESS      PTSUNNY   72  63  73 N5        30.14S
SEMINOLE       CLOUDY    72  65  79 CALM      30.19R
LUBBOCK        PTSUNNY   69  63  81 SE6       30.19R
PLAINVIEW      CLOUDY    66  61  83 S3        30.20R
SNYDER           N/A     79  65  62 SW9       30.14S
$$

TXZ052-054-060>062-072-078-127-140-154-169-261700-
PERMIAN BASIN/CONCHO VALLEY/BIG COUNTRY/EDWARDS PLATEAU

CITY           SKY/WX    TMP DP  RH WIND       PRES   REMARKS
ABILENE        SUNNY     80  68  66 VRB3      30.13R
BIG SPRING     SUNNY     81  65  58 SE5G16    30.16S
BROWNWOOD      CLOUDY    81  70  69 NW3       30.12S
JUNCTION       SUNNY     82  66  58 VRB3      30.10F
MIDLAND        PTSUNNY   78  66  66 S9        30.14R
ODESSA         CLOUDY    76  66  71 SW7       30.15S
SAN ANGELO     SUNNY     86  65  49 SW10      30.09F
SONORA         MOSUNNY   81  66  61 S9        30.15F
SWEETWATER     SUNNY     81  66  59 SW9       30.16S
WINK           PTSUNNY   77  66  68 VRB6G16   30.11S
$$

TXZ055-058-074-075-080-082-261700-
FAR WEST/SOUTHWEST MOUNTAINS/TRANS PECOS

CITY           SKY/WX    TMP DP  RH WIND       PRES   REMARKS
ALPINE         CLOUDY    66  57  72 SW7       30.28R
DRYDEN           N/A     79  69  71 S5        30.09S
EL PASO        MOSUNNY   75  58  55 SE5       30.15R
FORT STOCKTON  PTSUNNY   74  66  76 SW9       30.15R
GUADALUPE PASS SUNNY     68  58  70 VRB5      30.27R
MARFA          CLOUDY   N/A N/A N/A S3        30.26S
PECOS          PTSUNNY   73  65  78 CALM      30.13R
PRESIDIO       FAIR      70  64  79 CALM      30.15S
$$

TXZ014-016-019-021>030-083-261700
TEXAS TECH WEST TEXAS MESONET/TEXAS PANHANDLE/NORTHERN SOUTH PLAINS

CITY           SKY/WX    TMP DP  RH WIND       PRES   REMARKS
ABERNATHY 5ENE   N/A     67  63  85 SE6       30.23R
AMARILLO 9NNE    N/A     69  63  82 SW9       30.19S
AMARILLO 7SSE    N/A     67  62  84 SW9       30.22R
AMHERST 1NE      N/A     69  62  78 SE5       30.23R
BOOTLEG 11WNW    N/A     69  57  65 NE1       30.26S
CANADIAN 6E      N/A     70  65  85 S6        30.14R
CAPROCK CYN SP   N/A     67  63  87 SE5       30.20R
CHILDRESS 2NNE   N/A     72  64  75 NW5       30.16R
CLARENDON 2WSW   N/A     69  62  80 S9        30.19R
CLAUDE 12SW      N/A     65  63  95 S5        30.21R
DIMMITT 2NE      N/A     68  63  83 SW10      30.24R
FLOYDADA 2NNE    N/A     67  63  87 E6        30.20S
FRIONA 2NE       N/A     65  62  91 SW6       30.24F
GOODLETT 3W      N/A     76  63  64 NW3       30.12F
HART 3N          N/A     67  62  84 SW3       30.23R
HEREFORD 2NW     N/A     67  61  79 SW10      30.25S
MCLEAN 1E        N/A     67  63  87 S5        30.17S
MEMPHIS 1NE      N/A     70  63  79 S2        30.16S
MULESHOE 2SSW    N/A     70  61  74 W6        30.24R
OLTON 6S         N/A     67  61  79 SE3       30.23R
PALO DURO SP     N/A     65  64  94 S6        30.22R
PAMPA 2E         N/A     65  63  92 S6        30.19R
PLAINVIEW 1S     N/A     67  62  84 S3        30.22R
SILVERTON 7ESE   N/A     67  61  81 S5        30.19R
TULIA 2ENE       N/A     65  63  94 S3        30.23R
TURKEY 2WSW      N/A     68  63  83 S3        30.19S
UMBARGER 3NNE    N/A     68  64  85 SW15      30.23R
$$

TXZ033>036-039>041-045>048-261700
TEXAS TECH WEST TEXAS MESONET/SOUTH PLAINS

CITY           SKY/WX    TMP DP  RH WIND       PRES   REMARKS
AIKEN 3WSW       N/A     68  63  86 SE5       30.23R
ANDREWS 2NE      N/A     73  64  75 E5        30.19S
ANTON 6SSW       N/A     69  64  83 E2        30.21S
BROWNFIELD 2S    N/A     67  63  88 E5        30.21R
DENVR CTY 7WNW   N/A     73  61  67 SE5       30.21S
GAIL 2ESE        N/A     76  65  68 NW2       30.16R
LAMESA 2SE       N/A     68  64  86 NE5       30.18S
LEVELLAND 4S     N/A     71  62  73 SE3       30.22S
LUBBOCK 3WNW     N/A     71  63  74 E6        30.21S
MORTON 1ENE      N/A     71  63  74 SE6       30.23R
ODONNELL 1N      N/A     67  61  81 E5        30.19S
PLAINS 3N        N/A     74  61  65 S3        30.22R
RALLS 1SE      LGT RAIN  67  62  83 E3        30.21R
REESE CENTER     N/A     69  62  78 SE3       30.22R
SEAGRAVES 1SW    N/A     71  65  80 E5        30.20R
SEMINOLE 2NNE    N/A     71  64  78 E5        30.19R
SLATON 2NE       N/A     67  63  86 E5        30.20S
SNYDER 3E        N/A     82  66  59 S7        30.15R
SUNDOWN 8SW      N/A     75  63  66 SE6       30.22R
TAHOKA 3NNE      N/A     68  64  87 E6        30.20R
WOLFFORTH 6SSW   N/A     69  63  82 E3        30.21R
$$

TXZ031-032-036>038-042>044-261700-
TEXAS TECH WEST TEXAS MESONET/ROLLING PLAINS

CITY           SKY/WX    TMP DP  RH WIND       PRES   REMARKS
ASPERMONT 3NE    N/A     80  63  55 SW6       30.13S
FLUVANNA 3WNW    N/A     75  64  69 S6        30.17S
GRAHAM 5SSW      N/A     66  62  84 E3        30.19R
GUTHRIE 10WSW    N/A     74  64  69 N1        30.14S
HASKELL 1NW      N/A     81  63  55 SW10      30.11S
JAYTON 1SSE      N/A     75  63  67 E3        30.14S
KNOX CITY 3NW    N/A     81  63  55 S2        30.12S
LK A HENRY 1NW   N/A     77  62  61 NW1       30.16S
NORTHFIELD 1S    N/A     69  65  85 W3        30.17R
ODELL 4ENE       N/A     78  69  73 SW6       30.12R
PADUCAH 10SW     N/A     74  64  71 NE5       30.15S
POST 1NE         N/A     68  62  80 NE3       30.18R
RRING SPRGS 3N   N/A     70  63  77 N3        30.19R
SEYMOUR 3NW      N/A     85  64  50 SW5G10    30.10R
SPUR 1W          N/A     70  61  74 NE3       30.17R
WEINERT 2NNE     N/A     83  66  56 SW7       30.11R
WHITE RVR 6NE    N/A     69  60  72 E2        30.18S
$$

TXZ052-054-060>062-072-078-127-140-154-169-261700-
TEXAS TECH WEST TEXAS MESONET/PERMIAN BASIN/
CONCHO VALLEY/BIG COUNTRY/EDWARDS PLATEAU

CITY           SKY/WX    TMP DP  RH WIND       PRES   REMARKS
COYANOSA 2N      N/A     76  68  77 S7        30.13R
JUNCTION 1SSW    N/A     83  68  60 W1        30.11F
MERTZON 3NNE     N/A     82  67  62 S8        30.13S
SAN ANGELO 7NW   N/A     85  61  44 S12G17    30.11S
STRLNG CT 4WSW   N/A     83  65  55 S13G18    30.14S
ST LAWRNCE 5SW   N/A     81  65  58 S15       30.14S
SWEETWATR 11SW   N/A     81  67  63 SW9       30.16S
WALL 1E          N/A     84  64  50 SW9       30.12S
$$

TXZ055-058-074-075-080-082-261700-
TEXAS TECH WEST TEXAS MESONET/FAR WEST/SOUTHWEST MOUNTAINS/TRANS PECOS

CITY           SKY/WX    TMP DP  RH WIND       PRES   REMARKS
GUADLPE MTN NP   N/A     69  55  60 S7        30.29R
$$




USA.gov is the U.S. government's official web portal to all federal, state and local government web resources and services.